Zurück zum Katalog

THORAD AGENA D DEB

AktivSSO
NORAD 4914·DEBRIS·🇺🇸 United States

Gestartet Apr 8, 1970 von Vandenberg Space Force Base

Loading…

Nächste Überflüge (nächste 24 Stunden)

TLE

AktuellSource: Space-Track

Epoche: Sep 14, 2026, 08:39 UTC

1 04914U 70025FL  26257.36059087  .00002779  00000-0  30921-2 0  9994
2 04914  99.4428 201.8562 0080388 342.6850 170.3391 13.70932285786998

Verfolge THORAD AGENA D DEB in Echtzeit mit AllMySat

Download on the App Store